This demonstration page uses our WeatherBlox Daily Observations layout. Learn more.

Left ArrowRight Arrow

53.62937, 11.41316

Hourly Observations for September 26, 2021

Temp ( °F °C ) Dew Point ( °F °C ) Humidity (%) Winds ( mph kmh ) Pressure ( in mb ) Visibility ( mi km ) Precip ( " mm )
7:20 am 07:20 Mostly Sunny 61 16 59 15 94 94 NE 2 4 30.03 1017 30 48 N/A
7:50 am 07:50 Mostly Sunny 61 16 59 15 94 94 E 3 6 30.03 1017 30 48 N/A
8:20 am 08:20 Mostly Sunny 61 16 59 15 94 94 ESE 3 6 30.03 1017 30 48 N/A
8:50 am 08:50 Mostly Sunny 61 16 59 15 94 94 ESE 5 7 30.03 1017 7 11 N/A
9:20 am 09:20 Mostly Sunny 63 17 59 15 88 88 ESE 5 7 30.03 1017 7 11 N/A
9:50 am 09:50 Mostly Sunny 63 17 61 16 94 94 E 3 6 30.03 1017 7 11 N/A
10:20 am 10:20 Mostly Sunny 68 20 61 16 78 78 ESE 3 6 30.03 1017 7 11 N/A
10:50 am 10:50 Mostly Sunny 68 20 61 16 78 78 SE 6 9 30.03 1017 7 11 N/A
11:20 am 11:20 Mostly Sunny 70 21 59 15 69 69 SE 7 11 30.03 1017 7 11 N/A
11:50 am 11:50 Mostly Sunny 72 22 61 16 69 69 SE 7 11 30.03 1017 7 11 N/A
12:20 pm 12:20 Mostly Sunny 72 22 61 16 69 69 SE 7 11 30.00 1016 7 11 N/A
12:50 pm 12:50 Mostly Sunny 72 22 59 15 65 65 E 10 17 30.00 1016 7 11 N/A
1:20 pm 13:20 Mostly Sunny 73 23 61 16 65 65 E 9 15 30.00 1016 7 11 N/A
1:50 pm 13:50 Mostly Sunny 73 23 61 16 65 65 SE 7 11 30.00 1016 7 11 N/A
2:20 pm 14:20 Mostly Sunny 75 24 59 15 57 57 SSE 7 11 29.97 1015 30 48 N/A
2:50 pm 14:50 Mostly Sunny 73 23 59 15 61 61 SE 7 11 29.97 1015 7 11 N/A
3:20 pm 15:20 Mostly Sunny 73 23 59 15 61 61 ESE 6 9 29.97 1015 7 11 N/A
3:50 pm 15:50 Mostly Sunny 72 22 59 15 65 65 SE 6 9 29.97 1015 7 11 N/A
4:20 pm 16:20 Mostly Sunny 72 22 59 15 65 65 ESE 3 6 29.97 1015 7 11 N/A
4:50 pm 16:50 Mostly Sunny 72 22 59 15 65 65 ESE 3 6 29.97 1015 7 11 N/A
5:20 pm 17:20 Mostly Sunny 72 22 59 15 65 65 ESE 5 7 29.97 1015 7 11 N/A
5:50 pm 17:50 Mostly Sunny 72 22 59 15 65 65 ESE 5 7 29.97 1015 7 11 N/A
6:20 pm 18:20 Mostly Sunny 70 21 59 15 69 69 ESE 3 6 29.97 1015 7 11 N/A
6:50 pm 18:50 Mostly Sunny 68 20 61 16 78 78 E 3 6 29.97 1015 7 11 N/A
7:20 pm 19:20 Mostly Clear 68 20 61 16 78 78 E 3 6 29.97 1015 7 11 N/A
7:50 pm 19:50 Mostly Clear 66 19 61 16 83 83 E 3 6 29.97 1015 7 11 N/A
8:20 pm 20:20 Mostly Clear 66 19 61 16 83 83 E 5 7 29.97 1015 7 11 N/A
8:50 pm 20:50 Mostly Clear 64 18 61 16 88 88 E 3 6 29.97 1015 7 11 N/A
9:20 pm 21:20 Mostly Clear 64 18 61 16 88 88 ESE 5 7 29.97 1015 7 11 N/A
9:50 pm 21:50 Mostly Clear 64 18 61 16 88 88 SE 5 7 29.97 1015 7 11 N/A

Powered by AerisWeather